Simultaneous Nadir Overpasses (SNOs) Predictions

Prediction of SNOs between LANDSAT-8 and NPP Satellite Orbit:

Table of predicted SNOs for the next 14.0 days since TLE Epoch: 10/1/2016
Index Date (LANDSAT-8) Time (LANDSAT-8) Lat,Lon (LANDSAT-8) SZA (LANDSAT-8 ) Date (NPP) Time (NPP) Lat,Lon (NPP) SZA (NPP ) Distance(km) Time Diff (sec)
1 10/02/2016 06:08:58 70.87, 85.36 74.52 10/02/2016 06:07:50 70.89, 83.39 74.56 72.06 68
2 10/02/2016 06:58:39 -70.15,-108.07 106.19 10/02/2016 06:58:19 -70.14,-108.09 106.20 1.67 20
3 10/02/2016 07:48:07 70.00, 59.36 73.67 10/02/2016 07:49:03 70.00, 59.42 73.68 2.74 56
4 10/04/2016 22:25:39 70.23,-159.72 74.91 10/04/2016 22:24:32 70.20,-159.75 74.89 2.87 67
5 10/04/2016 23:15:09 -70.12, 7.76 105.19 10/04/2016 23:15:14 -70.13, 7.69 105.18 2.92 5
6 10/05/2016 00:04:42 69.68, 174.80 74.39 10/05/2016 00:05:52 69.68, 175.67 74.39 33.74 70
7 10/07/2016 14:42:10 70.18, -43.90 75.89 10/07/2016 14:41:28 70.20, -43.98 75.91 3.16 42
8 10/07/2016 15:31:40 -70.08, 123.58 104.21 10/07/2016 15:32:09 -70.07, 123.54 104.22 1.71 29
9 10/10/2016 06:09:01 -70.95, -94.53 102.34 10/10/2016 06:07:53 -71.00, -96.81 102.28 83.06 68
10 10/10/2016 06:58:41 70.13, 71.90 76.85 10/10/2016 06:58:23 70.14, 71.87 76.87 1.59 18
11 10/10/2016 07:48:11 -70.03,-120.62 103.24 10/10/2016 07:49:04 -70.01,-120.61 103.26 2.26 53
12 10/12/2016 22:25:45 -70.18, 20.20 102.10 10/12/2016 22:24:34 -70.21, 20.22 102.08 2.93 71
13 10/12/2016 23:15:12 70.07,-172.31
